| time (UTC) | temp C | wind direction | speed KPH | gust KPH | rain 1hr cm | rain 24hr cm | rain mn cm | humidity % | barometer mb |
| 20260506044954 | 9 | 310 | 0.0 | 0.0 | 0.13 | 0.10 | 0.10 | 99 | |
| 20260506044452 | 9 | 28 | 0.0 | 0.0 | 0.15 | 0.10 | 0.10 | 99 | |
| 20260506043948 | 9 | 19 | 0.0 | 0.0 | 0.15 | 0.08 | 0.08 | 99 | |
| 20260506043446 | 9 | 44 | 0.0 | 0.0 | 0.18 | 0.08 | 0.08 | 99 | |
| 20260506042943 | 9 | 8 | 0.0 | 0.0 | 0.18 | 0.08 | 0.08 | 99 | |
| 20260506042443 | 9 | 37 | 0.0 | 0.0 | 0.20 | 0.05 | 0.05 | 99 | |
| 20260506041940 | 10 | 55 | 0.0 | 0.0 | 0.23 | 0.05 | 0.05 | 99 | |
| 20260506041438 | 10 | 270 | 1.6 | 1.6 | 0.23 | 0.03 | 0.03 | 99 | |
| 20260506040935 | 10 | 49 | 0.0 | 0.0 | 0.25 | 0.03 | 0.03 | 99 | |
| 20260506040433 | 10 | 85 | 0.0 | 0.0 | 0.28 | 0.00 | 0.00 | 99 | |
| 20260506035928 | 10 | 44 | 0.0 | 0.0 | 0.30 | 1.63 | 1.63 | 99 | |
| 20260506035426 | 10 | 37 | 0.0 | 0.0 | 0.30 | 1.63 | 1.63 | 99 | |
| 20260506034922 | 10 | 59 | 0.0 | 0.0 | 0.30 | 1.60 | 1.60 | 99 | |
| 20260506034420 | 10 | 58 | 0.0 | 0.0 | 0.28 | 1.57 | 1.57 | 99 | |
| 20260506033917 | 10 | 59 | 0.0 | 0.0 | 0.28 | 1.55 | 1.55 | 99 | |
| 20260506033414 | 10 | 59 | 0.0 | 0.0 | 0.25 | 1.52 | 1.52 | 99 | |
| 20260506032911 | 10 | 38 | 0.0 | 0.0 | 0.25 | 1.50 | 1.50 | 99 | |
| 20260506032408 | 10 | 37 | 0.0 | 0.0 | 0.25 | 1.47 | 1.47 | 99 | |
| 20260506031904 | 10 | 356 | 0.0 | 0.0 | 0.25 | 1.45 | 1.45 | 99 | |
| 20260506031402 | 10 | 43 | 0.0 | 0.0 | 0.20 | 1.40 | 1.40 | 99 | |
| 20260506030859 | 10 | 22 | 0.0 | 0.0 | 0.18 | 1.35 | 1.35 | 99 | |
| 20260506030357 | 10 | 76 | 0.0 | 0.0 | 0.18 | 1.32 | 1.32 | 99 | |
| 20260506025854 | 10 | 47 | 0.0 | 0.0 | 0.18 | 1.32 | 1.32 | 99 | |
| 20260506025350 | 10 | 303 | 0.0 | 0.0 | 0.15 | 1.30 | 1.30 | 99 | |
| 20260506024848 | 10 | 30 | 0.0 | 0.0 | 0.18 | 1.30 | 1.30 | 99 | |
| 20260506024345 | 10 | 23 | 0.0 | 0.0 | 0.18 | 1.27 | 1.27 | 99 | |
| 20260506023840 | 10 | 62 | 0.0 | 0.0 | 0.20 | 1.27 | 1.27 | 99 | |
| 20260506023337 | 10 | 62 | 0.0 | 0.0 | 0.18 | 1.24 | 1.24 | 99 | |
| 20260506022834 | 10 | 59 | 0.0 | 0.0 | 0.18 | 1.22 | 1.22 | 99 | |
| 20260506022332 | 10 | 79 | 0.0 | 0.0 | 0.20 | 1.22 | 1.22 | 99 | |
| 20260506021830 | 10 | 75 | 0.0 | 0.0 | 0.18 | 1.19 | 1.19 | 99 | |
| 20260506021326 | 9 | 67 | 0.0 | 0.0 | 0.20 | 1.19 | 1.19 | 99 | |
| 20260506020823 | 9 | 76 | 0.0 | 0.0 | 0.18 | 1.14 | 1.14 | 99 | |
| 20260506020321 | 9 | 62 | 0.0 | 0.0 | 0.20 | 1.14 | 1.14 | 99 | |
| 20260506015818 | 9 | 64 | 0.0 | 0.0 | 0.23 | 1.14 | 1.14 | 99 | |
| 20260506015316 | 10 | 64 | 0.0 | 0.0 | 0.20 | 1.12 | 1.12 | 99 | |
| 20260506014812 | 10 | 58 | 0.0 | 0.0 | 0.23 | 1.12 | 1.12 | 99 | |
| 20260506014309 | 10 | 71 | 0.0 | 0.0 | 0.23 | 1.09 | 1.09 | 99 | |
| 20260506013805 | 10 | 77 | 0.0 | 0.0 | 0.23 | 1.07 | 1.07 | 99 | |
| 20260506013303 | 10 | 76 | 0.0 | 0.0 | 0.25 | 1.04 | 1.04 | 99 | |
| 20260506012800 | 10 | 151 | 0.0 | 0.0 | 0.38 | 1.04 | 1.04 | 99 | |
| 20260506012257 | 10 | 76 | 0.0 | 0.0 | 0.53 | 1.02 | 1.02 | 99 | |
| 20260506011754 | 10 | 69 | 0.0 | 0.0 | 0.53 | 0.99 | 0.99 | 99 | |
| 20260506011250 | 10 | 150 | 0.0 | 1.6 | 0.51 | 0.97 | 0.97 | 99 | |
| 20260506010748 | 9 | 106 | 0.0 | 0.0 | 0.61 | 0.94 | 0.94 | 98 | |
| 20260506010245 | 9 | 57 | 0.0 | 0.0 | 0.58 | 0.91 | 0.91 | 98 | |
| 20260506005743 | 10 | 83 | 0.0 | 0.0 | 0.61 | 0.91 | 0.91 | 98 | |
| 20260506005239 | 10 | 73 | 0.0 | 0.0 | 0.58 | 0.89 | 0.89 | 98 | |
| 20260506004735 | 9 | 48 | 0.0 | 0.0 | 0.56 | 0.86 | 0.86 | 98 | |
| 20260506004233 | 9 | 42 | 0.0 | 0.0 | 0.53 | 0.84 | 0.84 | 98 | |
| 20260506003728 | 10 | 2 | 0.0 | 1.6 | 0.53 | 0.81 | 0.81 | 98 | |
| 20260506003226 | 10 | 354 | 1.6 | 1.6 | 0.38 | 0.66 | 0.66 | 98 | |
| 20260506002721 | 10 | 278 | 1.6 | 3.2 | 0.23 | 0.51 | 0.51 | 98 | |
| 20260506002218 | 10 | 287 | 1.6 | 1.6 | 0.20 | 0.48 | 0.48 | 98 | |
| 20260506001714 | 10 | 337 | 0.0 | 0.0 | 0.18 | 0.46 | 0.46 | 98 | |
| 20260506001211 | 10 | 337 | 1.6 | 1.6 | 0.05 | 0.33 | 0.33 | 98 | |
| 20260506000708 | 10 | 57 | 0.0 | 1.6 | 0.05 | 0.33 | 0.33 | 98 | |
| 20260506000206 | 10 | 355 | 1.6 | 1.6 | 0.05 | 0.30 | 0.30 | 98 | |
| 20260505235703 | 10 | 351 | 1.6 | 1.6 | 0.05 | 0.30 | 0.30 | 98 | |
| 20260505235201 | 10 | 344 | 1.6 | 1.6 | 0.10 | 0.30 | 0.30 | 97 | |
| 20260505234657 | 10 | 34 | 0.0 | 1.6 | 0.10 | 0.30 | 0.30 | 97 | |
| 20260505234154 | 10 | 118 | 0.0 | 0.0 | 0.10 | 0.28 | 0.28 | 97 | |
| 20260505233651 | 10 | 40 | 0.0 | 0.0 | 0.13 | 0.28 | 0.28 | 97 | |
| 20260505233149 | 10 | 320 | 1.6 | 1.6 | 0.15 | 0.28 | 0.28 | 97 | |
| 20260505232646 | 10 | 51 | 0.0 | 0.0 | 0.15 | 0.28 | 0.28 | 97 | |
| 20260505232144 | 10 | 279 | 1.6 | 3.2 | 0.20 | 0.28 | 0.28 | 97 | |
| 20260505231640 | 10 | 54 | 0.0 | 0.0 | 0.20 | 0.28 | 0.28 | 97 | |
| 20260505231139 | 10 | 276 | 3.2 | 3.2 | 0.20 | 0.28 | 0.28 | 97 | |
| 20260505230637 | 10 | 291 | 1.6 | 1.6 | 0.18 | 0.25 | 0.25 | 96 | |
| 20260505230133 | 10 | 335 | 1.6 | 1.6 | 0.20 | 0.25 | 0.25 | 96 | |
| 20260505225629 | 10 | 28 | 0.0 | 1.6 | 0.15 | 0.20 | 0.20 | 96 | |
| 20260505225125 | 10 | 347 | 0.0 | 1.6 | 0.15 | 0.20 | 0.20 | 96 | |
| 20260505224622 | 10 | 289 | 3.2 | 3.2 | 0.10 | 0.15 | 0.15 | 95 | |
| 20260505224119 | 11 | 293 | 1.6 | 3.2 | 0.10 | 0.15 | 0.15 | 95 | |
| 20260505223617 | 11 | 33 | 1.6 | 1.6 | 0.08 | 0.13 | 0.13 | 94 | |
| 20260505223113 | 12 | 271 | 11.3 | 12.9 | 0.05 | 0.10 | 0.10 | 93 | |
| 20260505222609 | 12 | 277 | 1.6 | 3.2 | 0.03 | 0.08 | 0.08 | 94 | |
| 20260505222105 | 12 | 319 | 3.2 | 4.8 | 0.03 | 0.08 | 0.08 | 93 | |
| 20260505221603 | 12 | 23 | 1.6 | 1.6 | 0.03 | 0.08 | 0.08 | 93 | |
| 20260505221059 | 13 | 292 | 0.0 | 0.0 | 0.03 | 0.08 | 0.08 | 93 | |
| 20260505220556 | 13 | 308 | 1.6 | 3.2 | 0.00 | 0.05 | 0.05 | 93 | |
| 20260505220054 | 13 | 333 | 1.6 | 3.2 | 0.00 | 0.05 | 0.05 | 92 | |
| 20260505215552 | 13 | 291 | 1.6 | 1.6 | 0.00 | 0.05 | 0.05 | 92 | |
| 20260505215049 | 13 | 347 | 3.2 | 3.2 | 0.00 | 0.05 | 0.05 | 92 | |
| 20260505214547 | 13 | 347 | 0.0 | 1.6 | 0.00 | 0.05 | 0.05 | 92 | |
| 20260505214044 | 13 | 331 | 3.2 | 3.2 | 0.00 | 0.05 | 0.05 | 91 | |
| 20260505213542 | 13 | 292 | 3.2 | 3.2 | 0.00 | 0.05 | 0.05 | 91 | |
| 20260505213038 | 13 | 287 | 3.2 | 3.2 | 0.00 | 0.05 | 0.05 | 91 | |
| 20260505212534 | 13 | 289 | 4.8 | 4.8 | 0.00 | 0.05 | 0.05 | 91 | |
| 20260505212032 | 14 | 297 | 3.2 | 3.2 | 0.00 | 0.05 | 0.05 | 90 | |
| 20260505211529 | 14 | 354 | 1.6 | 1.6 | 0.00 | 0.05 | 0.05 | 90 | |
| 20260505211025 | 14 | 318 | 3.2 | 3.2 | 0.00 | 0.05 | 0.05 | 90 | |
| 20260505210522 | 14 | 284 | 3.2 | 3.2 | 0.00 | 0.05 | 0.05 | 90 | |
| 20260505210020 | 14 | 275 | 4.8 | 4.8 | 0.03 | 0.05 | 0.05 | 90 | |
| 20260505205518 | 14 | 25 | 1.6 | 1.6 | 0.05 | 0.05 | 0.05 | 90 | |
| 20260505205015 | 14 | 31 | 0.0 | 0.0 | 0.05 | 0.05 | 0.05 | 89 | |
| 20260505204512 | 15 | 24 | 0.0 | 0.0 | 0.05 | 0.05 | 0.05 | 89 | |
| 20260505204009 | 15 | 327 | 0.0 | 1.6 | 0.05 | 0.05 | 0.05 | 88 | |
| 20260505203506 | 15 | 27 | 0.0 | 0.0 | 0.05 | 0.05 | 0.05 | 88 | |
| 20260505203003 | 15 | 296 | 1.6 | 1.6 | 0.05 | 0.05 | 0.05 | 88 | |
| 20260505202459 | 15 | 47 | 0.0 | 0.0 | 0.05 | 0.05 | 0.05 | 88 | |
| 20260505201954 | 15 | 56 | 0.0 | 0.0 | 0.05 | 0.05 | 0.05 | 88 | |
| 20260505201452 | 15 | 12 | 0.0 | 0.0 | 0.05 | 0.05 | 0.05 | 87 | |
| 20260505200949 | 15 | 113 | 1.6 | 1.6 | 0.05 | 0.05 | 0.05 | 87 | |
| 20260505200447 | 15 | 66 | 0.0 | 0.0 | 0.03 | 0.03 | 0.03 | 85 | |
| 20260505195942 | 16 | 52 | 0.0 | 0.0 | 0.00 | 0.00 | 0.00 | 81 | |
| 20260505195440 | 16 | 298 | 3.2 | 3.2 | 0.00 | 0.00 | 0.00 | 78 | |
| 20260505194937 | 17 | 333 | 3.2 | 4.8 | 0.00 | 0.00 | 0.00 | 76 | |
| 20260505194434 | 17 | 80 | 0.0 | 1.6 | 0.00 | 0.00 | 0.00 | 75 | |
| 20260505193934 | 16 | 307 | 1.6 | 1.6 | 0.00 | 0.00 | 0.00 | 75 | |
| 20260505193432 | 17 | 341 | 3.2 | 3.2 | 0.00 | 0.00 | 0.00 | 74 | |
| 20260505192930 | 17 | 65 | 0.0 | 0.0 | 0.00 | 0.00 | 0.00 | 74 | |
| 20260505192428 | 17 | 341 | 1.6 | 1.6 | 0.00 | 0.00 | 0.00 | 74 | |
| 20260505191925 | 17 | 68 | 0.0 | 0.0 | 0.00 | 0.00 | 0.00 | 74 | |
| 20260505191424 | 17 | 353 | 1.6 | 3.2 | 0.00 | 0.00 | 0.00 | 73 | |
| 20260505190920 | 17 | 259 | 1.6 | 3.2 | 0.00 | 0.00 | 0.00 | 72 | |
| 20260505190415 | 17 | 258 | 1.6 | 1.6 | 0.00 | 0.00 | 0.00 | 72 | |
| 20260505185911 | 17 | 280 | 1.6 | 3.2 | 0.00 | 0.00 | 0.00 | 71 | |
| 20260505185408 | 18 | 54 | 0.0 | 1.6 | 0.00 | 0.00 | 0.00 | 71 | |
| 20260505184904 | 18 | 274 | 3.2 | 4.8 | 0.00 | 0.00 | 0.00 | 70 | |
| 20260505184401 | 18 | 284 | 3.2 | 3.2 | 0.00 | 0.00 | 0.00 | 69 | |
| 20260505183858 | 18 | 214 | 1.6 | 3.2 | 0.00 | 0.00 | 0.00 | 70 | |
| 20260505183354 | 18 | 12 | 6.4 | 9.7 | 0.00 | 0.00 | 0.00 | 70 | |
| 20260505182846 | 18 | 310 | 4.8 | 9.7 | 0.00 | 0.00 | 0.00 | 70 | |
| 20260505182343 | 17 | 271 | 6.4 | 8.0 | 0.00 | 0.00 | 0.00 | 71 | |
| 20260505181839 | 17 | 327 | 4.8 | 8.0 | 0.00 | 0.00 | 0.00 | 71 | |
| 20260505181337 | 17 | 275 | 3.2 | 3.2 | 0.00 | 0.00 | 0.00 | 71 | |
| 20260505180833 | 18 | 284 | 4.8 | 8.0 | 0.00 | 0.00 | 0.00 | 70 | |
| 20260505180330 | 19 | 241 | 4.8 | 4.8 | 0.00 | 0.00 | 0.00 | 67 | |
| 20260505175826 | 19 | 34 | 0.0 | 0.0 | 0.00 | 0.00 | 0.00 | 65 | |
| 20260505175323 | 19 | 278 | 0.0 | 0.0 | 0.00 | 0.00 | 0.00 | 66 | |
| 20260505174819 | 19 | 184 | 0.0 | 1.6 | 0.00 | 0.00 | 0.00 | 65 | |
| 20260505174317 | 20 | 118 | 0.0 | 1.6 | 0.00 | 0.00 | 0.00 | 65 | |
| 20260505173813 | 20 | 347 | 0.0 | 1.6 | 0.00 | 0.00 | 0.00 | 65 | |
| 20260505173309 | 20 | 180 | 1.6 | 1.6 | 0.00 | 0.00 | 0.00 | 64 | |
| 20260505172807 | 20 | 275 | 1.6 | 1.6 | 0.00 | 0.00 | 0.00 | 63 | |
| 20260505172306 | 20 | 158 | 3.2 | 3.2 | 0.00 | 0.00 | 0.00 | 62 | |
| 20260505171758 | 20 | 303 | 0.0 | 1.6 | 0.00 | 0.00 | 0.00 | 62 | |
| 20260505171255 | 20 | 25 | 3.2 | 4.8 | 0.00 | 0.00 | 0.00 | 61 | |
| 20260505170752 | 21 | 293 | 3.2 | 3.2 | 0.00 | 0.00 | 0.00 | 60 | |
| 20260505170249 | 21 | 168 | 3.2 | 8.0 | 0.00 | 0.00 | 0.00 | 62 | |
| 20260505165744 | 21 | 153 | 4.8 | 9.7 | 0.00 | 0.00 | 0.00 | 59 | |
| 20260505165240 | 21 | 288 | 1.6 | 3.2 | 0.00 | 0.00 | 0.00 | 60 | |
| 20260505164736 | 20 | 333 | 1.6 | 1.6 | 0.00 | 0.00 | 0.00 | 64 | |
| 20260505164233 | 20 | 135 | 1.6 | 3.2 | 0.00 | 0.00 | 0.00 | 63 | |
| 20260505163731 | 20 | 163 | 3.2 | 4.8 | 0.00 | 0.00 | 0.00 | 63 | |
| 20260505163230 | 20 | 89 | 6.4 | 11.3 | 0.00 | 0.00 | 0.00 | 61 | |
| 20260505162727 | 21 | 148 | 0.0 | 1.6 | 0.00 | 0.00 | 0.00 | 62 | |
| 20260505162224 | 20 | 142 | 3.2 | 3.2 | 0.00 | 0.00 | 0.00 | 63 | |
| 20260505161720 | 21 | 109 | 3.2 | 4.8 | 0.00 | 0.00 | 0.00 | 63 | |
| 20260505161218 | 21 | 72 | 3.2 | 3.2 | 0.00 | 0.00 | 0.00 | 63 | |
| 20260505160715 | 21 | 181 | 3.2 | 3.2 | 0.00 | 0.00 | 0.00 | 63 | |
| 20260505160213 | 21 | 146 | 11.3 | 16.1 | 0.00 | 0.00 | 0.00 | 63 | |
| 20260505153152 | 18 | 179 | 3.2 | 4.8 | 0.00 | 0.00 | 0.00 | 70 | |
| 20260505152649 | 18 | 170 | 0.0 | 3.2 | 0.00 | 0.00 | 0.00 | 70 | |
| 20260505152145 | 18 | 45 | 0.0 | 1.6 | 0.00 | 0.00 | 0.00 | 70 | |
| 20260505151640 | 18 | 264 | 3.2 | 8.0 | 0.00 | 0.00 | 0.00 | 70 | |
| 20260505151138 | 20 | 11 | 4.8 | 4.8 | 0.00 | 0.00 | 0.00 | 69 | |
| 20260505150633 | 19 | 135 | 0.0 | 0.0 | 0.00 | 0.00 | 0.00 | 70 | |
| 20260505150131 | 18 | 129 | 4.8 | 8.0 | 0.00 | 0.00 | 0.00 | 70 | |
| 20260505140559 | 17 | 73 | 0.0 | 0.0 | 0.00 | 0.00 | 0.00 | 75 | |
| 20260505125013 | 17 | 162 | 3.2 | 4.8 | 0.00 | 0.00 | 0.00 | 72 | |
| 20260505124509 | 17 | 120 | 1.6 | 1.6 | 0.00 | 0.00 | 0.00 | 72 | |
| 20260505124005 | 17 | 61 | 1.6 | 1.6 | 0.00 | 0.00 | 0.00 | 71 | |
| 20260505123502 | 17 | 164 | 3.2 | 4.8 | 0.00 | 0.00 | 0.00 | 70 | |
| 20260505122958 | 17 | 206 | 3.2 | 3.2 | 0.00 | 0.00 | 0.00 | 71 | |
| 20260505122455 | 17 | 183 | 3.2 | 4.8 | 0.00 | 0.00 | 0.00 | 70 | |
| 20260505121952 | 17 | 116 | 1.6 | 3.2 | 0.00 | 0.00 | 0.00 | 70 | |
| 20260505121449 | 17 | 123 | 3.2 | 9.7 | 0.00 | 0.00 | 0.00 | 69 | |
| 20260505120945 | 17 | 212 | 6.4 | 11.3 | 0.00 | 0.00 | 0.00 | 69 | |
| 20260505120442 | 17 | 101 | 1.6 | 1.6 | 0.00 | 0.00 | 0.00 | 69 | |
| 20260505115940 | 17 | 159 | 4.8 | 4.8 | 0.00 | 0.00 | 0.00 | 69 | |
| 20260505115437 | 17 | 158 | 6.4 | 9.7 | 0.00 | 0.00 | 0.00 | 69 | |
| 20260505114936 | 17 | 343 | 3.2 | 3.2 | 0.00 | 0.00 | 0.00 | 69 | |
| 20260505114431 | 17 | 152 | 4.8 | 4.8 | 0.00 | 0.00 | 0.00 | 69 | |
| 20260505113928 | 17 | 250 | 0.0 | 1.6 | 0.00 | 0.00 | 0.00 | 70 | |
| 20260505113425 | 17 | 159 | 4.8 | 8.0 | 0.00 | 0.00 | 0.00 | 70 | |
| 20260505112920 | 17 | 156 | 1.6 | 3.2 | 0.00 | 0.00 | 0.00 | 69 | |
| 20260505112418 | 17 | 113 | 0.0 | 0.0 | 0.00 | 0.00 | 0.00 | 70 | |
| 20260505111914 | 17 | 79 | 3.2 | 3.2 | 0.00 | 0.00 | 0.00 | 69 | |
| 20260505111409 | 17 | 53 | 0.0 | 0.0 | 0.00 | 0.00 | 0.00 | 70 | |
| 20260505110906 | 17 | 186 | 1.6 | 1.6 | 0.00 | 0.00 | 0.00 | 70 | |
| 20260505110403 | 17 | 79 | 4.8 | 9.7 | 0.00 | 0.00 | 0.00 | 69 | |
| 20260505101833 | 17 | 196 | 3.2 | 4.8 | 0.00 | 0.00 | 0.00 | 69 | |
| 20260505101328 | 17 | 134 | 1.6 | 1.6 | 0.00 | 0.00 | 0.00 | 70 | |
| 20260505100824 | 17 | 104 | 3.2 | 4.8 | 0.00 | 0.00 | 0.00 | 69 | |
| 20260505100321 | 17 | 290 | 1.6 | 3.2 | 0.00 | 0.00 | 0.00 | 70 | |
| 20260505095816 | 17 | 95 | 3.2 | 3.2 | 0.00 | 0.00 | 0.00 | 69 | |
| 20260505095315 | 17 | 145 | 0.0 | 1.6 | 0.00 | 0.00 | 0.00 | 69 | |
| 20260505094810 | 17 | 201 | 3.2 | 8.0 | 0.00 | 0.00 | 0.00 | 69 | |
| 20260505094307 | 17 | 148 | 8.0 | 11.3 | 0.00 | 0.00 | 0.00 | 69 | |
| 20260505093803 | 17 | 216 | 1.6 | 3.2 | 0.00 | 0.00 | 0.00 | 70 | |
| 20260505093301 | 17 | 123 | 1.6 | 3.2 | 0.00 | 0.00 | 0.00 | 70 | |
| 20260505092757 | 17 | 128 | 1.6 | 3.2 | 0.00 | 0.00 | 0.00 | 70 | |
| 20260505092255 | 17 | 128 | 6.4 | 11.3 | 0.00 | 0.00 | 0.00 | 69 | |
| 20260505091753 | 17 | 125 | 3.2 | 3.2 | 0.00 | 0.00 | 0.00 | 69 | |
| 20260505091250 | 17 | 87 | 0.0 | 0.0 | 0.00 | 0.00 | 0.00 | 69 | |
| 20260505090748 | 17 | 129 | 8.0 | 12.9 | 0.00 | 0.00 | 0.00 | 69 | |
| 20260505090246 | 17 | 154 | 4.8 | 9.7 | 0.00 | 0.00 | 0.00 | 70 | |
| 20260505085743 | 17 | 213 | 0.0 | 1.6 | 0.00 | 0.00 | 0.00 | 70 | |
| 20260505085242 | 17 | 150 | 1.6 | 3.2 | 0.00 | 0.00 | 0.00 | 70 | |
| 20260505084738 | 17 | 114 | 0.0 | 1.6 | 0.00 | 0.00 | 0.00 | 70 | |
| 20260505084238 | 17 | 191 | 1.6 | 3.2 | 0.00 | 0.00 | 0.00 | 70 | |
| 20260505083734 | 17 | 91 | 0.0 | 1.6 | 0.00 | 0.00 | 0.00 | 69 | |
| 20260505083231 | 17 | 138 | 3.2 | 4.8 | 0.00 | 0.00 | 0.00 | 70 | |
| 20260505082727 | 17 | 166 | 1.6 | 3.2 | 0.00 | 0.00 | 0.00 | 69 | |
| 20260505082224 | 17 | 149 | 1.6 | 3.2 | 0.00 | 0.00 | 0.00 | 70 | |
| 20260505081720 | 17 | 292 | 1.6 | 3.2 | 0.00 | 0.00 | 0.00 | 69 | |
| 20260505081218 | 17 | 37 | 3.2 | 4.8 | 0.00 | 0.00 | 0.00 | 69 | |
| 20260505080714 | 17 | 171 | 3.2 | 4.8 | 0.00 | 0.00 | 0.00 | 69 | |
| 20260505080210 | 17 | 172 | 1.6 | 4.8 | 0.00 | 0.00 | 0.00 | 69 | |
| 20260505075706 | 17 | 95 | 0.0 | 1.6 | 0.00 | 0.00 | 0.00 | 69 | |
| 20260505075204 | 17 | 137 | 1.6 | 3.2 | 0.00 | 0.00 | 0.00 | 69 | |
| 20260505074700 | 17 | 219 | 1.6 | 3.2 | 0.00 | 0.00 | 0.00 | 69 | |
| 20260505074157 | 17 | 139 | 8.0 | 11.3 | 0.00 | 0.00 | 0.00 | 69 | |
| 20260505073655 | 17 | 63 | 6.4 | 9.7 | 0.00 | 0.00 | 0.00 | 69 | |
| 20260505073153 | 17 | 149 | 4.8 | 4.8 | 0.00 | 0.00 | 0.00 | 69 | |
| 20260505072648 | 17 | 166 | 4.8 | 8.0 | 0.00 | 0.00 | 0.00 | 70 | |
| 20260505072145 | 17 | 185 | 3.2 | 3.2 | 0.00 | 0.00 | 0.00 | 70 | |
| 20260505071640 | 17 | 149 | 0.0 | 1.6 | 0.00 | 0.00 | 0.00 | 71 | |
| 20260505071139 | 17 | 175 | 4.8 | 9.7 | 0.00 | 0.00 | 0.00 | 70 | |
| 20260505070635 | 17 | 123 | 1.6 | 1.6 | 0.00 | 0.00 | 0.00 | 71 | |
| 20260505070132 | 17 | 101 | 0.0 | 0.0 | 0.00 | 0.00 | 0.00 | 71 | |
| 20260505065628 | 17 | 171 | 9.7 | 12.9 | 0.00 | 0.00 | 0.00 | 71 | |
| 20260505065124 | 17 | 123 | 3.2 | 3.2 | 0.00 | 0.00 | 0.00 | 71 | |
| 20260505064621 | 17 | 123 | 0.0 | 0.0 | 0.00 | 0.00 | 0.00 | 71 | |
| 20260505064120 | 17 | 86 | 4.8 | 8.0 | 0.00 | 0.00 | 0.00 | 71 | |
| 20260505063617 | 17 | 89 | 0.0 | 0.0 | 0.00 | 0.00 | 0.00 | 71 | |
| 20260505063113 | 17 | 193 | 3.2 | 4.8 | 0.00 | 0.00 | 0.00 | 71 | |
| 20260505062609 | 17 | 130 | 0.0 | 1.6 | 0.00 | 0.00 | 0.00 | 71 | |
| 20260505062107 | 17 | 128 | 1.6 | 1.6 | 0.00 | 0.00 | 0.00 | 72 | |
| 20260505061603 | 17 | 149 | 3.2 | 3.2 | 0.00 | 0.00 | 0.00 | 72 | |
| 20260505061102 | 17 | 127 | 0.0 | 1.6 | 0.00 | 0.00 | 0.00 | 72 | |
| 20260505060559 | 16 | 123 | 1.6 | 1.6 | 0.00 | 0.00 | 0.00 | 74 | |
| 20260505060055 | 16 | 79 | 0.0 | 0.0 | 0.00 | 0.00 | 0.00 | 73 | |
| 20260505055550 | 17 | 50 | 0.0 | 0.0 | 0.00 | 0.00 | 0.00 | 72 | |
| 20260505055048 | 17 | 12 | 0.0 | 1.6 | 0.00 | 0.00 | 0.00 | 71 | |
| 20260505054545 | 17 | 282 | 1.6 | 1.6 | 0.00 | 0.00 | 0.00 | 72 | |
| 20260505054043 | 17 | 88 | 0.0 | 0.0 | 0.00 | 0.00 | 0.00 | 73 | |
| 20260505053539 | 17 | 114 | 1.6 | 1.6 | 0.00 | 0.00 | 0.00 | 72 | |
| 20260505053036 | 17 | 130 | 0.0 | 0.0 | 0.00 | 0.00 | 0.00 | 70 | |
| 20260505052533 | 17 | 160 | 9.7 | 14.5 | 0.00 | 0.00 | 0.00 | 68 | |
| 20260505052031 | 17 | 162 | 1.6 | 1.6 | 0.00 | 0.00 | 0.00 | 69 | |
| 20260505051527 | 17 | 118 | 0.0 | 0.0 | 0.00 | 0.00 | 0.00 | 69 | |
| 20260505051026 | 17 | 230 | 3.2 | 3.2 | 0.00 | 0.00 | 0.00 | 68 | |
| 20260505050524 | 17 | 139 | 0.0 | 0.0 | 0.00 | 0.00 | 0.00 | 69 |